| time (UTC) | temp C | wind direction | speed KPH | gust KPH | rain 1hr cm | rain 24hr cm | rain mn cm | humidity % | barometer mb |
| 20260505212111 | 26 | 222 | 8.0 | 22.5 | 0.00 | 0.00 | 0.94 | 31 | 1015.2 |
| 20260505211557 | 26 | 93 | 1.6 | 22.5 | 0.00 | 0.00 | 0.94 | 34 | 1015.2 |
| 20260505211044 | 26 | 162 | 3.2 | 22.5 | 0.00 | 0.00 | 0.94 | 33 | 1015.2 |
| 20260505210529 | 26 | 269 | 9.7 | 22.5 | 0.00 | 0.00 | 0.94 | 34 | 1015.2 |
| 20260505205957 | 26 | 237 | 3.2 | 22.5 | 0.00 | 0.00 | 0.94 | 31 | 1015.2 |
| 20260505205435 | 26 | 194 | 11.3 | 22.5 | 0.00 | 0.00 | 0.94 | 33 | 1015.6 |
| 20260505204919 | 26 | 220 | 1.6 | 22.5 | 0.00 | 0.00 | 0.94 | 32 | 1015.6 |
| 20260505204406 | 26 | 225 | 11.3 | 22.5 | 0.00 | 0.00 | 0.94 | 30 | 1015.6 |
| 20260505203853 | 26 | 240 | 12.9 | 22.5 | 0.00 | 0.00 | 0.94 | 30 | 1015.6 |
| 20260505203321 | 26 | 241 | 6.4 | 22.5 | 0.00 | 0.00 | 0.94 | 35 | 1015.2 |
| 20260505202801 | 26 | 231 | 6.4 | 22.5 | 0.00 | 0.00 | 0.94 | 31 | 1015.2 |
| 20260505202240 | 25 | 142 | 8.0 | 22.5 | 0.00 | 0.00 | 0.94 | 34 | 1015.2 |
| 20260505201718 | 26 | 165 | 4.8 | 22.5 | 0.00 | 0.00 | 0.94 | 35 | 1015.2 |
| 20260505201157 | 26 | 238 | 6.4 | 22.5 | 0.00 | 0.00 | 0.94 | 34 | 1015.6 |
| 20260505200645 | 26 | 272 | 4.8 | 22.5 | 0.00 | 0.00 | 0.94 | 35 | 1015.6 |
| 20260505200131 | 26 | 249 | 3.2 | 22.5 | 0.00 | 0.00 | 0.94 | 36 | 1015.9 |
| 20260505195619 | 25 | 69 | 1.6 | 22.5 | 0.00 | 0.00 | 0.94 | 35 | 1015.6 |
| 20260505195102 | 25 | 157 | 3.2 | 22.5 | 0.00 | 0.00 | 0.94 | 37 | 1015.9 |
| 20260505194553 | 25 | 227 | 14.5 | 22.5 | 0.00 | 0.00 | 0.94 | 32 | 1016.3 |
| 20260505194032 | 25 | 231 | 1.6 | 22.5 | 0.00 | 0.00 | 0.94 | 34 | 1015.9 |
| 20260505193520 | 25 | 184 | 8.0 | 22.5 | 0.00 | 0.00 | 0.94 | 34 | 1015.9 |
| 20260505193007 | 25 | 342 | 3.2 | 22.5 | 0.00 | 0.00 | 0.94 | 33 | 1016.3 |
| 20260505192454 | 25 | 254 | 6.4 | 22.5 | 0.00 | 0.00 | 0.94 | 33 | 1016.3 |
| 20260505191938 | 25 | 195 | 3.2 | 22.5 | 0.00 | 0.00 | 0.94 | 35 | 1016.6 |
| 20260505191429 | 25 | 142 | 4.8 | 22.5 | 0.00 | 0.00 | 0.94 | 34 | 1016.6 |
| 20260505190916 | 25 | 95 | 3.2 | 22.5 | 0.00 | 0.00 | 0.94 | 32 | 1016.6 |
| 20260505190401 | 25 | 246 | 4.8 | 22.5 | 0.00 | 0.00 | 0.94 | 34 | 1016.6 |
| 20260505185849 | 25 | 214 | 4.8 | 22.5 | 0.00 | 0.00 | 0.94 | 35 | 1016.6 |
| 20260505185337 | 25 | 223 | 8.0 | 22.5 | 0.00 | 0.00 | 0.94 | 33 | 1016.9 |
| 20260505184823 | 25 | 268 | 1.6 | 22.5 | 0.00 | 0.00 | 0.94 | 37 | 1016.9 |
| 20260505184310 | 25 | 133 | 14.5 | 22.5 | 0.00 | 0.00 | 0.94 | 36 | 1016.9 |
| 20260505183756 | 25 | 249 | 12.9 | 22.5 | 0.00 | 0.00 | 0.94 | 34 | 1016.9 |
| 20260505183244 | 25 | 135 | 4.8 | 22.5 | 0.00 | 0.00 | 0.94 | 36 | 1016.9 |
| 20260505182728 | 25 | 259 | 3.2 | 22.5 | 0.00 | 0.00 | 0.94 | 33 | 1016.9 |
| 20260505182216 | 25 | 274 | 6.4 | 22.5 | 0.00 | 0.00 | 0.94 | 35 | 1017.3 |
| 20260505181656 | 25 | 151 | 4.8 | 22.5 | 0.00 | 0.00 | 0.94 | 38 | 1016.9 |
| 20260505181133 | 25 | 235 | 9.7 | 22.5 | 0.00 | 0.00 | 0.94 | 36 | 1017.3 |
| 20260505180620 | 25 | 215 | 3.2 | 22.5 | 0.00 | 0.00 | 0.94 | 35 | 1017.3 |
| 20260505180107 | 25 | 331 | 3.2 | 22.5 | 0.00 | 0.00 | 0.94 | 40 | 1017.3 |
| 20260505175554 | 24 | 248 | 3.2 | 22.5 | 0.00 | 0.00 | 0.94 | 40 | 1017.3 |
| 20260505175040 | 24 | 246 | 8.0 | 22.5 | 0.00 | 0.00 | 0.94 | 38 | 1017.3 |
| 20260505174526 | 25 | 222 | 6.4 | 22.5 | 0.00 | 0.00 | 0.94 | 37 | 1017.3 |
| 20260505174016 | 25 | 216 | 6.4 | 22.5 | 0.00 | 0.00 | 0.94 | 38 | 1017.3 |
| 20260505173500 | 25 | 213 | 11.3 | 22.5 | 0.00 | 0.00 | 0.94 | 35 | 1017.3 |
| 20260505172949 | 25 | 189 | 3.2 | 22.5 | 0.00 | 0.00 | 0.94 | 36 | 1017.3 |
| 20260505172434 | 25 | 184 | 11.3 | 22.5 | 0.00 | 0.00 | 0.94 | 42 | 1017.3 |
| 20260505171924 | 24 | 124 | 3.2 | 22.5 | 0.00 | 0.00 | 0.94 | 44 | 1017.3 |
| 20260505171409 | 24 | 103 | 0.0 | 22.5 | 0.00 | 0.00 | 0.94 | 46 | 1017.3 |
| 20260505170854 | 24 | 169 | 6.4 | 22.5 | 0.00 | 0.00 | 0.94 | 48 | 1017.6 |
| 20260505170343 | 24 | 233 | 8.0 | 22.5 | 0.00 | 0.00 | 0.94 | 45 | 1017.3 |
| 20260505165830 | 23 | 246 | 11.3 | 22.5 | 0.00 | 0.00 | 0.94 | 42 | 1017.9 |
| 20260505165307 | 23 | 226 | 9.7 | 22.5 | 0.00 | 0.00 | 0.94 | 49 | 1017.6 |
| 20260505164747 | 23 | 249 | 11.3 | 22.5 | 0.00 | 0.00 | 0.94 | 49 | 1017.6 |
| 20260505164227 | 23 | 249 | 6.4 | 22.5 | 0.00 | 0.00 | 0.94 | 50 | 1017.6 |
| 20260505163704 | 23 | 193 | 1.6 | 22.5 | 0.00 | 0.00 | 0.94 | 51 | 1017.6 |
| 20260505163151 | 23 | 251 | 6.4 | 22.5 | 0.00 | 0.00 | 0.94 | 46 | 1017.9 |
| 20260505162635 | 23 | 219 | 8.0 | 20.9 | 0.00 | 0.00 | 0.94 | 53 | 1017.9 |
| 20260505162125 | 23 | 122 | 0.0 | 20.9 | 0.00 | 0.00 | 0.94 | 55 | 1017.9 |
| 20260505161550 | 23 | 220 | 17.7 | 20.9 | 0.00 | 0.00 | 0.94 | 53 | 1017.9 |
| 20260505161029 | 23 | 231 | 9.7 | 20.9 | 0.00 | 0.00 | 0.94 | 53 | 1017.9 |
| 20260505160527 | 23 | 207 | 3.2 | 20.9 | 0.00 | 0.00 | 0.94 | 54 | 1018.3 |
| 20260505153354 | 22 | 283 | 4.8 | 20.9 | 0.00 | 0.00 | 0.94 | 65 | 1018.6 |
| 20260505152840 | 22 | 223 | 14.5 | 20.9 | 0.00 | 0.00 | 0.94 | 64 | 1018.3 |
| 20260505152328 | 21 | 228 | 6.4 | 20.9 | 0.00 | 0.00 | 0.94 | 62 | 1018.3 |
| 20260505151810 | 21 | 265 | 8.0 | 20.9 | 0.00 | 0.00 | 0.94 | 62 | 1018.3 |
| 20260505151248 | 21 | 238 | 3.2 | 20.9 | 0.00 | 0.00 | 0.94 | 64 | 1018.6 |
| 20260505150747 | 21 | 168 | 0.0 | 20.9 | 0.00 | 0.00 | 0.94 | 68 | 1018.6 |
| 20260505150226 | 21 | 245 | 6.4 | 20.9 | 0.00 | 0.00 | 0.94 | 70 | 1018.6 |
| 20260505140446 | 19 | 231 | 4.8 | 19.3 | 0.00 | 0.00 | 0.94 | 82 | 1018.6 |
| 20260505130109 | 17 | 231 | 1.6 | 12.9 | 0.00 | 0.00 | 0.94 | 94 | 1018.6 |
| 20260505125035 | 16 | 241 | 6.4 | 12.9 | 0.00 | 0.00 | 0.94 | 96 | 1018.6 |
| 20260505124520 | 16 | 218 | 9.7 | 12.9 | 0.00 | 0.00 | 0.94 | 97 | 1018.3 |
| 20260505124007 | 16 | 277 | 0.0 | 12.9 | 0.00 | 0.00 | 0.94 | 99 | 1018.6 |
| 20260505123453 | 16 | 225 | 9.7 | 12.9 | 0.00 | 0.00 | 0.94 | 100 | 1018.6 |
| 20260505122936 | 15 | 233 | 3.2 | 12.9 | 0.00 | 0.00 | 0.94 | 100 | 1018.3 |
| 20260505122424 | 15 | 234 | 4.8 | 12.9 | 0.00 | 0.00 | 0.94 | 100 | 1018.3 |
| 20260505121911 | 15 | 234 | 1.6 | 12.9 | 0.00 | 0.00 | 0.94 | 100 | 1018.3 |
| 20260505121356 | 15 | 237 | 8.0 | 12.9 | 0.00 | 0.00 | 0.94 | 100 | 1018.6 |
| 20260505120838 | 14 | 230 | 1.6 | 12.9 | 0.00 | 0.00 | 0.94 | 100 | 1018.3 |
| 20260505120335 | 14 | 230 | 3.2 | 12.9 | 0.00 | 0.00 | 0.94 | 100 | 1018.3 |
| 20260505115812 | 13 | 224 | 4.8 | 12.9 | 0.00 | 0.00 | 0.94 | 100 | 1018.3 |
| 20260505115248 | 13 | 224 | 1.6 | 12.9 | 0.00 | 0.00 | 0.94 | 100 | 1018.3 |
| 20260505114735 | 13 | 224 | 1.6 | 12.9 | 0.00 | 0.00 | 0.94 | 100 | 1018.3 |
| 20260505114219 | 13 | 229 | 1.6 | 12.9 | 0.00 | 0.00 | 0.94 | 100 | 1018.3 |
| 20260505113706 | 13 | 229 | 1.6 | 12.9 | 0.00 | 0.00 | 0.94 | 100 | 1017.9 |
| 20260505113153 | 13 | 229 | 3.2 | 12.9 | 0.00 | 0.00 | 0.94 | 100 | 1017.9 |
| 20260505112635 | 13 | 229 | 3.2 | 12.9 | 0.00 | 0.00 | 0.94 | 100 | 1018.3 |
| 20260505112122 | 12 | 229 | 1.6 | 12.9 | 0.00 | 0.00 | 0.94 | 100 | 1017.9 |
| 20260505111604 | 12 | 229 | 0.0 | 12.9 | 0.00 | 0.00 | 0.94 | 100 | 1017.9 |
| 20260505111102 | 12 | 229 | 0.0 | 12.9 | 0.00 | 0.00 | 0.94 | 100 | 1017.9 |
| 20260505110601 | 12 | 229 | 0.0 | 12.9 | 0.00 | 0.00 | 0.94 | 100 | 1017.9 |
| 20260505101819 | 11 | 229 | 0.0 | 12.9 | 0.00 | 0.00 | 0.94 | 100 | 1017.3 |
| 20260505101247 | 11 | 229 | 0.0 | 12.9 | 0.00 | 0.00 | 0.94 | 100 | 1016.9 |
| 20260505100722 | 11 | 229 | 0.0 | 12.9 | 0.00 | 0.00 | 0.94 | 100 | 1017.3 |
| 20260505100208 | 11 | 229 | 0.0 | 12.9 | 0.00 | 0.00 | 0.94 | 100 | 1017.3 |
| 20260505095654 | 11 | 229 | 0.0 | 12.9 | 0.00 | 0.00 | 0.94 | 100 | 1017.3 |
| 20260505095139 | 11 | 229 | 0.0 | 12.9 | 0.00 | 0.00 | 0.94 | 100 | 1017.3 |
| 20260505094625 | 12 | 229 | 0.0 | 12.9 | 0.00 | 0.00 | 0.94 | 100 | 1016.9 |
| 20260505094110 | 12 | 229 | 0.0 | 12.9 | 0.00 | 0.00 | 0.94 | 100 | 1016.9 |
| 20260505093553 | 12 | 229 | 0.0 | 12.9 | 0.00 | 0.00 | 0.94 | 100 | 1017.3 |
| 20260505093040 | 12 | 229 | 0.0 | 12.9 | 0.00 | 0.00 | 0.94 | 100 | 1017.3 |
| 20260505092526 | 12 | 229 | 0.0 | 12.9 | 0.00 | 0.00 | 0.94 | 100 | 1016.9 |
| 20260505092011 | 12 | 229 | 0.0 | 12.9 | 0.00 | 0.00 | 0.94 | 100 | 1016.6 |
| 20260505091455 | 12 | 229 | 0.0 | 12.9 | 0.00 | 0.00 | 0.94 | 100 | 1016.9 |
| 20260505090952 | 12 | 229 | 0.0 | 12.9 | 0.00 | 0.00 | 0.94 | 100 | 1016.6 |
| 20260505090450 | 12 | 229 | 0.0 | 12.9 | 0.00 | 0.00 | 0.94 | 100 | 1016.9 |
| 20260505085945 | 12 | 229 | 0.0 | 12.9 | 0.00 | 0.00 | 0.94 | 100 | 1016.9 |
| 20260505085431 | 12 | 229 | 0.0 | 12.9 | 0.00 | 0.00 | 0.94 | 100 | 1016.6 |
| 20260505084916 | 12 | 229 | 1.6 | 12.9 | 0.00 | 0.00 | 0.94 | 100 | 1016.9 |
| 20260505084404 | 13 | 229 | 0.0 | 12.9 | 0.00 | 0.00 | 0.94 | 100 | 1016.6 |
| 20260505083849 | 13 | 229 | 0.0 | 12.9 | 0.00 | 0.00 | 0.94 | 100 | 1016.6 |
| 20260505083333 | 13 | 229 | 1.6 | 12.9 | 0.00 | 0.00 | 0.94 | 100 | 1016.9 |
| 20260505082820 | 13 | 229 | 3.2 | 12.9 | 0.00 | 0.00 | 0.94 | 100 | 1016.6 |
| 20260505082305 | 13 | 229 | 0.0 | 12.9 | 0.00 | 0.00 | 0.94 | 100 | 1016.9 |
| 20260505081757 | 13 | 229 | 3.2 | 12.9 | 0.00 | 0.00 | 0.94 | 98 | 1016.6 |
| 20260505081255 | 13 | 229 | 0.0 | 12.9 | 0.00 | 0.00 | 0.94 | 97 | 1016.6 |
| 20260505080741 | 13 | 229 | 3.2 | 12.9 | 0.00 | 0.00 | 0.94 | 96 | 1016.6 |
| 20260505080226 | 13 | 229 | 6.4 | 12.9 | 0.00 | 0.00 | 0.94 | 96 | 1016.6 |
| 20260505075711 | 13 | 229 | 4.8 | 12.9 | 0.00 | 0.00 | 0.94 | 94 | 1016.6 |
| 20260505075156 | 13 | 229 | 4.8 | 12.9 | 0.00 | 0.00 | 0.94 | 100 | 1016.9 |
| 20260505074650 | 14 | 229 | 4.8 | 12.9 | 0.00 | 0.00 | 0.94 | 100 | 1016.6 |
| 20260505074125 | 14 | 229 | 4.8 | 12.9 | 0.00 | 0.00 | 0.94 | 100 | 1016.6 |
| 20260505073610 | 14 | 229 | 1.6 | 12.9 | 0.00 | 0.00 | 0.94 | 92 | 1016.6 |
| 20260505073055 | 14 | 228 | 3.2 | 12.9 | 0.00 | 0.00 | 0.94 | 92 | 1016.6 |
| 20260505072549 | 14 | 225 | 4.8 | 12.9 | 0.00 | 0.00 | 0.94 | 92 | 1016.3 |
| 20260505072033 | 13 | 231 | 3.2 | 12.9 | 0.00 | 0.00 | 0.94 | 100 | 1016.6 |
| 20260505071522 | 13 | 221 | 1.6 | 12.9 | 0.00 | 0.00 | 0.94 | 100 | 1016.3 |
| 20260505071010 | 13 | 220 | 3.2 | 12.9 | 0.00 | 0.00 | 0.94 | 100 | 1016.3 |
| 20260505070454 | 13 | 217 | 1.6 | 12.9 | 0.00 | 0.00 | 0.94 | 100 | 1016.6 |
| 20260505065939 | 14 | 233 | 0.0 | 12.9 | 0.00 | 0.00 | 0.94 | 94 | 1016.6 |
| 20260505065427 | 14 | 232 | 0.0 | 12.9 | 0.00 | 0.00 | 0.94 | 92 | 1016.3 |
| 20260505064912 | 14 | 232 | 0.0 | 12.9 | 0.00 | 0.00 | 0.94 | 92 | 1016.9 |
| 20260505064358 | 14 | 232 | 0.0 | 12.9 | 0.00 | 0.00 | 0.94 | 92 | 1016.6 |
| 20260505063842 | 14 | 232 | 3.2 | 12.9 | 0.00 | 0.00 | 0.94 | 91 | 1016.6 |
| 20260505063326 | 14 | 232 | 0.0 | 12.9 | 0.00 | 0.00 | 0.94 | 90 | 1016.6 |
| 20260505062812 | 14 | 232 | 1.6 | 12.9 | 0.00 | 0.00 | 0.94 | 90 | 1016.6 |
| 20260505062300 | 14 | 232 | 4.8 | 12.9 | 0.00 | 0.00 | 0.94 | 90 | 1016.6 |
| 20260505061745 | 14 | 229 | 0.0 | 12.9 | 0.00 | 0.00 | 0.94 | 89 | 1016.6 |
| 20260505061240 | 14 | 229 | 0.0 | 12.9 | 0.00 | 0.00 | 0.94 | 88 | 1016.9 |
| 20260505060725 | 14 | 229 | 0.0 | 12.9 | 0.00 | 0.00 | 0.94 | 87 | 1016.6 |
| 20260505060213 | 15 | 229 | 0.0 | 12.9 | 0.00 | 0.00 | 0.94 | 86 | 1016.6 |
| 20260505055659 | 15 | 229 | 1.6 | 12.9 | 0.00 | 0.00 | 0.94 | 85 | 1016.6 |
| 20260505055143 | 15 | 228 | 0.0 | 12.9 | 0.00 | 0.00 | 0.94 | 85 | 1016.6 |
| 20260505054639 | 15 | 229 | 0.0 | 12.9 | 0.00 | 0.00 | 0.94 | 85 | 1016.6 |
| 20260505054116 | 15 | 228 | 0.0 | 12.9 | 0.00 | 0.00 | 0.94 | 84 | 1016.6 |
| 20260505053600 | 15 | 229 | 0.0 | 12.9 | 0.00 | 0.00 | 0.94 | 83 | 1016.9 |
| 20260505053047 | 15 | 228 | 1.6 | 12.9 | 0.00 | 0.00 | 0.94 | 80 | 1016.6 |
| 20260505052532 | 15 | 229 | 0.0 | 12.9 | 0.00 | 0.00 | 0.94 | 80 | 1016.6 |
| 20260505052023 | 15 | 237 | 1.6 | 12.9 | 0.00 | 0.00 | 0.94 | 78 | 1016.6 |
| 20260505051510 | 15 | 238 | 0.0 | 12.9 | 0.00 | 0.00 | 0.94 | 78 | 1016.9 |
| 20260505050947 | 16 | 184 | 1.6 | 12.9 | 0.00 | 0.00 | 0.94 | 78 | 1016.9 |
| 20260505050434 | 16 | 226 | 1.6 | 12.9 | 0.00 | 0.00 | 0.94 | 77 | 1016.9 |
| 20260505041735 | 16 | 236 | 9.7 | 12.9 | 0.00 | 0.00 | 0.94 | 71 | 1016.9 |
| 20260505041216 | 16 | 236 | 0.0 | 12.9 | 0.00 | 0.00 | 0.94 | 70 | 1016.9 |
| 20260505040702 | 16 | 270 | 1.6 | 12.9 | 0.00 | 0.00 | 0.94 | 70 | 1016.9 |
| 20260505040139 | 17 | 227 | 9.7 | 9.7 | 0.00 | 0.00 | 0.94 | 68 | 1016.9 |
| 20260505035626 | 17 | 240 | 4.8 | 25.7 | 0.00 | 0.00 | 0.94 | 68 | 1016.9 |
| 20260505035113 | 17 | 243 | 6.4 | 25.7 | 0.00 | 0.00 | 0.94 | 67 | 1016.9 |
| 20260505034604 | 17 | 230 | 9.7 | 25.7 | 0.00 | 0.00 | 0.94 | 67 | 1016.6 |
| 20260505034052 | 17 | 213 | 8.0 | 25.7 | 0.00 | 0.00 | 0.94 | 67 | 1016.9 |
| 20260505033538 | 17 | 219 | 4.8 | 25.7 | 0.00 | 0.00 | 0.94 | 66 | 1016.9 |
| 20260505033033 | 17 | 262 | 1.6 | 25.7 | 0.00 | 0.00 | 0.94 | 66 | 1016.9 |
| 20260505032518 | 17 | 241 | 3.2 | 25.7 | 0.00 | 0.00 | 0.94 | 66 | 1016.9 |
| 20260505032007 | 17 | 231 | 6.4 | 25.7 | 0.00 | 0.00 | 0.94 | 66 | 1016.6 |
| 20260505031448 | 17 | 240 | 9.7 | 25.7 | 0.00 | 0.00 | 0.94 | 66 | 1016.9 |
| 20260505030944 | 17 | 228 | 12.9 | 25.7 | 0.00 | 0.00 | 0.94 | 64 | 1016.6 |
| 20260505030432 | 17 | 193 | 8.0 | 25.7 | 0.00 | 0.00 | 0.94 | 64 | 1016.9 |
| 20260505025913 | 17 | 256 | 3.2 | 25.7 | 0.00 | 0.00 | 0.94 | 63 | 1016.6 |
| 20260505025350 | 17 | 231 | 6.4 | 25.7 | 0.00 | 0.00 | 0.94 | 61 | 1016.6 |
| 20260505024826 | 17 | 222 | 4.8 | 25.7 | 0.00 | 0.00 | 0.94 | 63 | 1016.9 |
| 20260505024311 | 17 | 168 | 6.4 | 25.7 | 0.00 | 0.00 | 0.94 | 62 | 1016.9 |
| 20260505023800 | 18 | 195 | 3.2 | 25.7 | 0.00 | 0.00 | 0.94 | 61 | 1016.6 |
| 20260505023244 | 18 | 224 | 11.3 | 25.7 | 0.00 | 0.00 | 0.94 | 61 | 1017.3 |
| 20260505022736 | 18 | 217 | 6.4 | 25.7 | 0.00 | 0.00 | 0.94 | 61 | 1016.9 |
| 20260505022224 | 18 | 253 | 9.7 | 25.7 | 0.00 | 0.00 | 0.94 | 60 | 1017.3 |
| 20260505021721 | 18 | 90 | 6.4 | 25.7 | 0.00 | 0.00 | 0.94 | 61 | 1016.6 |
| 20260505021155 | 18 | 127 | 1.6 | 25.7 | 0.00 | 0.00 | 0.94 | 60 | 1016.6 |
| 20260505020642 | 18 | 243 | 6.4 | 25.7 | 0.00 | 0.00 | 0.94 | 59 | 1016.6 |
| 20260505020127 | 18 | 260 | 3.2 | 25.7 | 0.00 | 0.00 | 0.94 | 59 | 1016.6 |
| 20260505015610 | 18 | 251 | 6.4 | 25.7 | 0.00 | 0.00 | 0.94 | 59 | 1016.6 |
| 20260505015106 | 18 | 226 | 4.8 | 25.7 | 0.00 | 0.00 | 0.94 | 59 | 1016.3 |
| 20260505014543 | 18 | 253 | 8.0 | 25.7 | 0.00 | 0.00 | 0.94 | 59 | 1016.9 |
| 20260505014036 | 18 | 179 | 0.0 | 25.7 | 0.00 | 0.00 | 0.94 | 57 | 1016.3 |
| 20260505013520 | 19 | 232 | 12.9 | 25.7 | 0.00 | 0.00 | 0.94 | 57 | 1016.3 |
| 20260505013015 | 19 | 265 | 3.2 | 25.7 | 0.00 | 0.00 | 0.94 | 58 | 1016.6 |
| 20260505012459 | 19 | 225 | 6.4 | 25.7 | 0.00 | 0.00 | 0.94 | 58 | 1016.3 |
| 20260505011937 | 19 | 237 | 4.8 | 25.7 | 0.00 | 0.00 | 0.94 | 56 | 1016.3 |
| 20260505011419 | 20 | 197 | 6.4 | 25.7 | 0.00 | 0.00 | 0.94 | 56 | 1016.3 |
| 20260505010908 | 20 | 229 | 11.3 | 25.7 | 0.00 | 0.00 | 0.94 | 53 | 1016.3 |
| 20260505010352 | 20 | 332 | 4.8 | 25.7 | 0.00 | 0.00 | 0.94 | 53 | 1015.9 |
| 20260505005847 | 20 | 246 | 25.7 | 25.7 | 0.00 | 0.00 | 0.94 | 54 | 1016.3 |
| 20260505005333 | 20 | 239 | 9.7 | 24.1 | 0.00 | 0.00 | 0.94 | 52 | 1015.9 |
| 20260505004828 | 20 | 216 | 14.5 | 24.1 | 0.00 | 0.00 | 0.94 | 53 | 1015.9 |
| 20260505004320 | 20 | 192 | 4.8 | 24.1 | 0.00 | 0.00 | 0.94 | 53 | 1015.6 |
| 20260505003803 | 21 | 234 | 4.8 | 24.1 | 0.00 | 0.00 | 0.94 | 52 | 1015.6 |
| 20260505003259 | 21 | 212 | 6.4 | 24.1 | 0.00 | 0.00 | 0.94 | 51 | 1015.6 |
| 20260505002745 | 21 | 258 | 1.6 | 24.1 | 0.00 | 0.00 | 0.94 | 47 | 1015.2 |
| 20260505002232 | 21 | 245 | 4.8 | 24.1 | 0.00 | 0.00 | 0.94 | 43 | 1015.2 |
| 20260505001718 | 21 | 262 | 3.2 | 24.1 | 0.00 | 0.00 | 0.94 | 40 | 1015.2 |
| 20260505001202 | 21 | 234 | 4.8 | 24.1 | 0.00 | 0.00 | 0.94 | 32 | 1015.2 |
| 20260505000652 | 21 | 241 | 11.3 | 24.1 | 0.00 | 0.00 | 0.94 | 26 | 1015.2 |
| 20260505000124 | 22 | 234 | 6.4 | 24.1 | 0.00 | 0.00 | 0.94 | 26 | 1015.2 |
| 20260504235602 | 22 | 211 | 3.2 | 24.1 | 0.00 | 0.00 | 0.94 | 25 | 1015.2 |
| 20260504235046 | 22 | 227 | 4.8 | 24.1 | 0.00 | 0.00 | 0.94 | 24 | 1014.9 |
| 20260504234530 | 22 | 232 | 3.2 | 24.1 | 0.00 | 0.00 | 0.94 | 23 | 1015.2 |
| 20260504234023 | 22 | 211 | 1.6 | 24.1 | 0.00 | 0.00 | 0.94 | 21 | 1014.9 |
| 20260504233459 | 22 | 269 | 6.4 | 24.1 | 0.00 | 0.00 | 0.94 | 22 | 1014.9 |
| 20260504232944 | 23 | 206 | 4.8 | 24.1 | 0.00 | 0.00 | 0.94 | 21 | 1014.6 |
| 20260504232429 | 23 | 221 | 4.8 | 24.1 | 0.00 | 0.00 | 0.94 | 20 | 1014.6 |
| 20260504231914 | 23 | 221 | 0.0 | 24.1 | 0.00 | 0.00 | 0.94 | 18 | 1014.6 |
| 20260504231400 | 23 | 253 | 12.9 | 24.1 | 0.00 | 0.00 | 0.94 | 18 | 1014.6 |
| 20260504230845 | 23 | 213 | 6.4 | 24.1 | 0.00 | 0.00 | 0.94 | 15 | 1014.2 |
| 20260504230331 | 23 | 236 | 11.3 | 24.1 | 0.00 | 0.00 | 0.94 | 15 | 1014.2 |
| 20260504225825 | 23 | 242 | 3.2 | 24.1 | 0.00 | 0.00 | 0.94 | 15 | 1014.2 |
| 20260504225313 | 23 | 229 | 6.4 | 24.1 | 0.00 | 0.00 | 0.94 | 14 | 1014.6 |
| 20260504224757 | 23 | 241 | 0.0 | 24.1 | 0.00 | 0.00 | 0.94 | 13 | 1014.6 |
| 20260504224252 | 23 | 238 | 4.8 | 24.1 | 0.00 | 0.00 | 0.94 | 13 | 1014.6 |
| 20260504223740 | 24 | 238 | 6.4 | 24.1 | 0.00 | 0.00 | 0.94 | 9 | 1014.2 |
| 20260504223225 | 24 | 259 | 4.8 | 24.1 | 0.00 | 0.00 | 0.94 | 12 | 1014.6 |
| 20260504222719 | 24 | 247 | 4.8 | 24.1 | 0.00 | 0.00 | 0.94 | 11 | 1014.6 |
| 20260504222156 | 24 | 261 | 11.3 | 24.1 | 0.00 | 0.00 | 0.94 | 10 | 1014.6 |
| 20260504221638 | 24 | 245 | 12.9 | 24.1 | 0.00 | 0.00 | 0.94 | 9 | 1014.6 |
| 20260504221131 | 24 | 253 | 12.9 | 24.1 | 0.00 | 0.00 | 0.94 | 13 | 1014.6 |
| 20260504220611 | 24 | 140 | 6.4 | 24.1 | 0.00 | 0.00 | 0.94 | 10 | 1014.2 |
| 20260504220047 | 24 | 191 | 6.4 | 24.1 | 0.00 | 0.00 | 0.94 | 9 | 1014.6 |
| 20260504215532 | 25 | 271 | 4.8 | 24.1 | 0.00 | 0.00 | 0.94 | 13 | 1014.6 |
| 20260504215028 | 25 | 216 | 4.8 | 24.1 | 0.00 | 0.00 | 0.94 | 11 | 1014.6 |
| 20260504214515 | 25 | 248 | 4.8 | 24.1 | 0.00 | 0.00 | 0.94 | 16 | 1014.6 |
| 20260504214002 | 25 | 209 | 3.2 | 24.1 | 0.00 | 0.00 | 0.94 | 11 | 1014.6 |
| 20260504213456 | 25 | 250 | 6.4 | 24.1 | 0.00 | 0.00 | 0.94 | 11 | 1014.6 |
| 20260504212947 | 25 | 233 | 8.0 | 24.1 | 0.00 | 0.00 | 0.94 | 7 | 1014.6 |
| 20260504212445 | 25 | 245 | 11.3 | 24.1 | 0.00 | 0.00 | 0.94 | 9 | 1014.6 |